TimeEST,TemperatureF,Dew PointF,Humidity,Sea Level PressureIn,VisibilityMPH,Wind Direction,Wind SpeedMPH,Gust SpeedMPH,PrecipitationIn,Events,Conditions,WindDirDegrees,DateUTC
12:15 AM,30.2,21.2,69,29.85,10.0,SW,15.0,-,N/A,,Clear,220,2013-12-19 05:15:00
12:34 AM,32.0,21.2,64,29.85,10.0,SW,13.8,19.6,N/A,,Clear,230,2013-12-19 05:34:00
12:55 AM,32.0,21.2,64,29.85,10.0,SW,13.8,-,N/A,,Clear,230,2013-12-19 05:55:00
1:15 AM,33.8,23.0,65,29.85,10.0,SW,12.7,-,N/A,,Clear,230,2013-12-19 06:15:00
1:34 AM,33.8,24.8,70,29.84,10.0,SW,12.7,-,N/A,,Clear,230,2013-12-19 06:34:00
1:55 AM,33.8,24.8,70,29.84,10.0,SW,13.8,-,N/A,,Clear,230,2013-12-19 06:55:00
2:15 AM,33.8,24.8,70,29.84,10.0,SW,13.8,-,N/A,,Clear,230,2013-12-19 07:15:00
2:34 AM,33.8,24.8,70,29.85,10.0,SW,12.7,-,N/A,,Clear,230,2013-12-19 07:34:00
2:55 AM,33.8,24.8,70,29.85,10.0,SW,10.4,-,N/A,,Clear,230,2013-12-19 07:55:00
3:15 AM,32.0,24.8,75,29.85,10.0,SW,9.2,-,N/A,,Clear,230,2013-12-19 08:15:00
3:34 AM,32.0,26.6,80,29.86,10.0,SW,10.4,-,N/A,,Clear,220,2013-12-19 08:34:00
3:55 AM,33.8,26.6,75,29.86,10.0,SW,9.2,-,N/A,,Clear,230,2013-12-19 08:55:00
4:15 AM,33.8,28.4,81,29.86,10.0,SW,10.4,-,N/A,,Clear,230,2013-12-19 09:15:00
4:34 AM,33.8,28.4,81,29.86,10.0,SW,10.4,-,N/A,,Clear,230,2013-12-19 09:34:00
4:55 AM,33.8,28.4,81,29.86,10.0,SW,10.4,-,N/A,,Clear,230,2013-12-19 09:55:00
5:15 AM,32.0,26.6,80,29.86,10.0,SW,8.1,-,N/A,,Clear,230,2013-12-19 10:15:00
5:34 AM,32.0,26.6,80,29.87,10.0,SW,8.1,-,N/A,,Clear,230,2013-12-19 10:34:00
5:55 AM,32.0,26.6,80,29.87,10.0,SW,9.2,-,N/A,,Clear,220,2013-12-19 10:55:00
6:15 AM,32.0,28.4,87,29.87,10.0,SW,6.9,-,N/A,,Clear,230,2013-12-19 11:15:00
6:34 AM,30.2,26.6,86,29.87,10.0,SW,9.2,-,N/A,,Clear,220,2013-12-19 11:34:00
6:55 AM,28.4,26.6,93,29.87,10.0,SW,8.1,-,N/A,,Clear,220,2013-12-19 11:55:00
7:15 AM,28.4,26.6,93,29.88,10.0,SW,6.9,-,N/A,,Clear,220,2013-12-19 12:15:00
7:34 AM,28.4,26.6,93,29.88,10.0,SW,6.9,-,N/A,,Clear,220,2013-12-19 12:34:00
7:55 AM,30.2,28.4,93,29.88,10.0,SW,6.9,-,N/A,,Clear,220,2013-12-19 12:55:00
8:15 AM,30.2,28.4,93,29.88,10.0,SW,4.6,-,N/A,,Clear,220,2013-12-19 13:15:00
8:34 AM,30.2,28.4,93,29.89,10.0,SW,5.8,-,N/A,,Clear,220,2013-12-19 13:34:00
8:55 AM,33.8,30.2,87,29.90,10.0,SSW,4.6,-,N/A,,Clear,210,2013-12-19 13:55:00
9:15 AM,32.0,28.4,87,29.91,10.0,SSW,4.6,-,N/A,,Clear,210,2013-12-19 14:15:00
9:34 AM,33.8,30.2,87,29.92,10.0,Calm,Calm,-,N/A,,Clear,0,2013-12-19 14:34:00
9:55 AM,33.8,30.2,87,29.92,10.0,SSW,4.6,-,N/A,,Clear,210,2013-12-19 14:55:00
10:14 AM,35.6,30.2,81,29.93,10.0,SSW,3.5,-,N/A,,Clear,210,2013-12-19 15:14:00
10:34 AM,35.6,30.2,81,29.94,10.0,SSW,4.6,-,N/A,,Clear,210,2013-12-19 15:34:00
10:55 AM,35.6,32.0,87,29.94,10.0,SSW,5.8,-,N/A,,Clear,210,2013-12-19 15:55:00
11:15 AM,37.4,33.8,87,29.94,10.0,SSW,5.8,-,N/A,,Clear,210,2013-12-19 16:15:00
11:34 AM,37.4,33.8,87,29.95,10.0,SW,5.8,-,N/A,,Clear,220,2013-12-19 16:34:00
11:55 AM,37.4,33.8,87,29.95,10.0,SSW,6.9,-,N/A,,Clear,210,2013-12-19 16:55:00
12:14 PM,37.4,33.8,87,29.94,10.0,SSW,6.9,-,N/A,,Clear,210,2013-12-19 17:14:00
12:35 PM,39.2,33.8,81,29.93,10.0,SW,5.8,-,N/A,,Clear,220,2013-12-19 17:35:00
12:55 PM,39.2,33.8,81,29.93,10.0,SW,8.1,-,N/A,,Clear,230,2013-12-19 17:55:00
1:14 PM,39.2,33.8,81,29.93,10.0,SW,6.9,-,N/A,,Clear,220,2013-12-19 18:14:00
1:35 PM,39.2,33.8,81,29.93,10.0,SW,8.1,-,N/A,,Clear,220,2013-12-19 18:35:00
1:55 PM,37.4,33.8,87,29.92,10.0,SW,5.8,-,N/A,,Scattered Clouds,220,2013-12-19 18:55:00
2:14 PM,37.4,33.8,87,29.91,10.0,SSW,5.8,-,N/A,,Mostly Cloudy,210,2013-12-19 19:14:00
2:35 PM,39.2,33.8,81,29.92,10.0,SW,5.8,-,N/A,,Overcast,220,2013-12-19 19:35:00
2:55 PM,37.4,33.8,87,29.91,10.0,SSW,5.8,-,N/A,,Overcast,210,2013-12-19 19:55:00
3:14 PM,37.4,33.8,87,29.92,10.0,SSW,5.8,-,N/A,,Overcast,200,2013-12-19 20:14:00
3:35 PM,37.4,33.8,87,29.92,10.0,SSW,4.6,-,N/A,,Overcast,210,2013-12-19 20:35:00
3:55 PM,37.4,33.8,87,29.92,10.0,SSW,3.5,-,N/A,,Overcast,200,2013-12-19 20:55:00
4:15 PM,39.2,33.8,81,29.92,10.0,SSW,3.5,-,N/A,,Overcast,200,2013-12-19 21:15:00
4:34 PM,39.2,33.8,81,29.91,10.0,Calm,Calm,-,N/A,,Mostly Cloudy,0,2013-12-19 21:34:00
4:55 PM,39.2,33.8,81,29.92,10.0,Calm,Calm,-,N/A,,Scattered Clouds,0,2013-12-19 21:55:00
5:14 PM,37.4,33.8,87,29.91,10.0,South,4.6,-,N/A,,Mostly Cloudy,170,2013-12-19 22:14:00
5:35 PM,39.2,33.8,81,29.91,10.0,Calm,Calm,-,N/A,,Mostly Cloudy,0,2013-12-19 22:35:00
5:55 PM,39.2,33.8,81,29.91,10.0,Calm,Calm,-,N/A,,Overcast,0,2013-12-19 22:55:00
6:14 PM,39.2,33.8,81,29.90,10.0,Calm,Calm,-,N/A,,Overcast,0,2013-12-19 23:14:00
6:35 PM,37.4,33.8,87,29.91,10.0,Calm,Calm,-,N/A,,Overcast,0,2013-12-19 23:35:00
6:55 PM,39.2,35.6,87,29.91,10.0,Calm,Calm,-,N/A,,Mostly Cloudy,0,2013-12-19 23:55:00
7:14 PM,39.2,35.6,87,29.91,10.0,Calm,Calm,-,N/A,,Mostly Cloudy,0,2013-12-20 00:14:00
7:35 PM,39.2,35.6,87,29.91,10.0,Calm,Calm,-,N/A,,Overcast,0,2013-12-20 00:35:00
7:55 PM,37.4,33.8,87,29.90,10.0,Calm,Calm,-,N/A,,Overcast,0,2013-12-20 00:55:00
8:14 PM,37.4,33.8,87,29.89,10.0,Calm,Calm,-,N/A,,Overcast,0,2013-12-20 01:14:00
8:35 PM,39.2,35.6,87,29.88,10.0,SSE,4.6,-,N/A,,Overcast,150,2013-12-20 01:35:00
8:55 PM,37.4,35.6,93,29.88,10.0,Calm,Calm,-,N/A,,Overcast,0,2013-12-20 01:55:00
9:14 PM,37.4,35.6,93,29.87,10.0,Calm,Calm,-,N/A,,Overcast,0,2013-12-20 02:14:00
9:35 PM,37.4,35.6,93,29.87,10.0,Calm,Calm,-,N/A,,Overcast,0,2013-12-20 02:35:00
9:55 PM,37.4,35.6,93,29.86,5.0,Calm,Calm,-,N/A,,Overcast,0,2013-12-20 02:55:00
10:15 PM,37.4,35.6,93,29.85,3.0,Calm,Calm,-,N/A,,Mostly Cloudy,0,2013-12-20 03:15:00
10:35 PM,37.4,35.6,93,29.85,1.8,Calm,Calm,-,N/A,,Mist,0,2013-12-20 03:35:00
10:55 PM,37.4,37.4,100,29.85,1.0,South,5.8,-,N/A,,Light Drizzle,190,2013-12-20 03:55:00
11:14 PM,37.4,37.4,100,29.84,0.8,South,4.6,-,N/A,,Light Drizzle,180,2013-12-20 04:14:00
11:35 PM,37.4,37.4,100,29.84,0.5,South,3.5,-,N/A,Rain,Light Rain,190,2013-12-20 04:35:00
11:54 PM,39.2,37.4,93,29.84,0.5,Calm,Calm,-,N/A,,Drizzle,0,2013-12-20 04:54:00